Location: Cheyres
(46.8153°N, 6.7877°E)
Time: 11:27:45
(UTC+00:00)

Gbstr 26 Del rocket - Pass Details

Date: 18 September 2021
Orbit: 492 x 1263 km, 51.8° (Epoch: 18 October)

Event Time Altitude Azimuth Distance (km) Brightness Sun altitude
Exits shadow 01:40:19 52° 312° (NW) 1,495 4.8 -33.2°
Maximum altitude 01:41:53 61° 356° (N) 1,363 4.7 -33.1°
Drops below altitude 10° 01:49:12 10° 76° (ENE) 2,964 7.1 -32.2°
Sets 01:51:48 0° 80° (E) 3,823 7.8 -31.9°
